Weather History for KINK - February, 2013

Change the Weather History Date:

Friday, February 1, 2013

  Actual Average Record
Temperature  
Mean Temperature 46 °F -  
Max Temperature 68 °F 61 °F 83 °F (1963)
Min Temperature 25 °F 31 °F -2 °F (1951)
Degree Days  
Heating Degree Days 18    
Moisture  
Dew Point 18 °F    
Average Humidity 38    
Maximum Humidity 72    
Minimum Humidity 14    
Precipitation  
Precipitation 0.00 in - - ()
Sea Level Pressure  
Sea Level Pressure 30.14 in    
Wind  
Wind Speed 5 mph (SSE)    
Max Wind Speed 12 mph    
Max Gust Speed 17 mph    
Visibility 10 miles    
Events      
Averages and records for this station are not official NWS values.
T = Trace of Precipitation, MM = Missing Value Source: NWS Daily Summary

Daily Weather History Graph

Daily Weather History Graph

Search for Another Location

Airport or City:

Trip Planner

Search our weather history database for the weather conditions in past years. The results will help you decide how hot, cold, wet, or windy it might be!

Date:

Astronomy

Feb. 01, 2013 Rise Set
Actual Time 7:45 AM CST 6:27 PM CST
Civil Twilight 7:20 AM CST 6:53 PM CST
Nautical Twilight 6:51 AM CST 7:22 PM CST
Astronomical Twilight 6:22 AM CST 7:50 PM CST
Moon No Moon Rise 10:45 AM CST (2/1)
Length of Visible Light 11h 32m
Length of Day
10h 41m
Waning Gibbous, 70% of the Moon is Illuminated
Feb 1
Waning Gibbous
Feb 3
Last Quarter
Feb 10
New
Feb 17
First Quarter
Feb 25
Full

Hourly Weather History & Observations

Time (CST) Temp. Windchill Dew Point Humidity Pressure Visibility Wind Dir Wind Speed Gust Speed Precip Events Conditions
12:53 AM 37.0 °F 34.5 °F 19.0 °F 48% 30.20 in 10.0 mi North 3.5 mph - N/A   Clear
1:53 AM 34.0 °F 31.0 °F 19.0 °F 54% 30.19 in 10.0 mi ENE 3.5 mph - N/A   Clear
2:53 AM 32.0 °F 27.5 °F 19.0 °F 59% 30.19 in 10.0 mi North 4.6 mph - N/A   Clear
3:53 AM 30.0 °F 25.2 °F 18.0 °F 61% 30.19 in 10.0 mi NNE 4.6 mph - N/A   Clear
4:53 AM 28.0 °F 24.2 °F 18.0 °F 66% 30.19 in 10.0 mi ENE 3.5 mph - N/A   Clear
5:53 AM 27.0 °F 21.6 °F 17.1 °F 66% 30.21 in 10.0 mi North 4.6 mph - N/A   Clear
6:53 AM 26.1 °F 20.5 °F 17.1 °F 69% 30.21 in 10.0 mi North 4.6 mph - N/A   Clear
7:53 AM 25.0 °F 19.3 °F 17.1 °F 72% 30.22 in 10.0 mi North 4.6 mph - N/A   Clear
8:53 AM 33.8 °F 30.8 °F 19.4 °F 56% 30.23 in 10.0 mi NNE 3.5 mph - N/A   Clear
9:53 AM 46.9 °F - 19.0 °F 33% 30.21 in 10.0 mi SE 5.8 mph - N/A   Clear
10:53 AM 53.6 °F - 19.4 °F 26% 30.23 in 10.0 mi SSE 6.9 mph - N/A   Clear
11:53 AM 59.0 °F - 19.0 °F 21% 30.18 in 10.0 mi South 10.4 mph 16.1 mph N/A   Clear
12:53 PM 61.0 °F - 18.0 °F 19% 30.15 in 10.0 mi South 10.4 mph - N/A   Clear
1:53 PM 64.0 °F - 17.1 °F 16% 30.10 in 10.0 mi SSW 9.2 mph - N/A   Clear
2:53 PM 66.0 °F - 16.0 °F 15% 30.07 in 10.0 mi SSW 11.5 mph - N/A   Clear
3:53 PM 68.0 °F - 16.0 °F 14% 30.05 in 10.0 mi WSW 9.2 mph 17.3 mph N/A   Clear
4:53 PM 68.0 °F - 16.0 °F 14% 30.04 in 10.0 mi SW 5.8 mph - N/A   Clear
5:53 PM 66.0 °F - 17.1 °F 15% 30.04 in 10.0 mi SW 4.6 mph - N/A   Clear
6:53 PM 57.9 °F - 17.1 °F 20% 30.06 in - South 3.5 mph - N/A   Clear
7:53 PM 55.0 °F - 18.0 °F 23% 30.09 in - SSE 9.2 mph - N/A   Clear
8:53 PM 48.9 °F - 18.0 °F 29% 30.09 in - SSE 9.2 mph - N/A   Clear
9:53 PM 48.0 °F - 18.0 °F 30% 30.09 in - ESE 3.5 mph - N/A   Clear
10:53 PM 42.1 °F - 19.9 °F 41% 30.10 in - Calm Calm - N/A   Clear
11:53 PM 42.1 °F - 19.9 °F 41% 30.09 in - Calm Calm - N/A   Clear